Starlink 36059

operational
NORAD ID: 66904 Int'l Des: 2025-283 Owner: SPXS Country: US Constellation: starlink
LEOCIRCULAR

About Starlink 36059

Description loading...

Live Position

Loading 3D Globe...

Upcoming Passes

Altitude History

Altitude vs Time

uPlot chart will show altitude changes over time

Two-Line Element Set

1 66904U 25283AC 25347.25002315 -.01317476 51807-3 -33876-2 0 9998
2 66904 53.1542 71.2713 0000877 73.6999 226.9035 15.94601745 2510
Epoch: Dec 13, 2025 • Age: 20 hours

Current Status

Altitude 306.6 km
Velocity 7.72 km/s
Sub-Earth Point -34.94°S, 71.66°W
Launch Date Dec 4, 2025
Age 9 days
Type internet

Technical Details

Classification Payload
Mass 575.00 kg
Dry Mass 530.00 kg
Total Mass 575.00 kg
Length 0.30 m
Diameter 4.10 m
Span 29.00 m
Shape Box + pan
Manufacturer SPXS
Bus Type Starlink V2MO
Phase Status In Orbit
Owner/State SPXS/US

Large Constellations

Loading constellations...